Time,TemperatureF,DewpointF,PressureIn,WindDirection,WindDirectionDegrees,WindSpeedMPH,WindSpeedGustMPH,Humidity,HourlyPrecipIn,Conditions,Clouds,dailyrainin,SoftwareType,DateUTC
2013-06-01 00:14:00,58.5,21.8,30.03,ENE,67,0.0,-999.0,24,-99.99,,,0.00,Acu-Link.com,2013-06-01 06:14:00,
2013-06-01 00:30:00,58.1,22.5,30.03,WNW,292,2.7,-999.0,25,-99.99,,,0.00,Acu-Link.com,2013-06-01 06:30:00,
2013-06-01 00:45:00,58.8,22.1,30.03,WNW,292,2.7,-999.0,24,-99.99,,,0.00,Acu-Link.com,2013-06-01 06:45:00,
2013-06-01 01:00:00,58.3,21.7,30.04,WNW,292,3.8,-999.0,24,-99.99,,,0.00,Acu-Link.com,2013-06-01 07:00:00,
2013-06-01 01:15:00,57.7,22.2,30.04,North,0,1.1,-999.0,25,-99.99,,,0.00,Acu-Link.com,2013-06-01 07:15:00,
2013-06-01 01:30:00,56.3,21.9,30.05,NE,45,1.1,-999.0,26,-99.99,,,0.00,Acu-Link.com,2013-06-01 07:30:00,
2013-06-01 01:45:00,55.4,22.9,30.06,ENE,67,1.6,-999.0,28,-99.99,,,0.00,Acu-Link.com,2013-06-01 07:45:00,
2013-06-01 02:00:00,55.0,22.5,30.06,NE,45,0.0,-999.0,28,-99.99,,,0.00,Acu-Link.com,2013-06-01 08:00:00,
2013-06-01 02:15:00,54.9,22.4,30.06,NE,45,1.1,-999.0,28,-99.99,,,0.00,Acu-Link.com,2013-06-01 08:15:00,
2013-06-01 02:30:00,54.3,22.8,30.06,NNE,22,1.1,-999.0,29,-99.99,,,0.00,Acu-Link.com,2013-06-01 08:30:00,
2013-06-01 02:46:00,53.6,23.7,30.07,NE,45,0.0,-999.0,31,-99.99,,,0.00,Acu-Link.com,2013-06-01 08:46:00,
2013-06-01 03:01:00,52.5,24.3,30.07,NNE,22,0.0,-999.0,33,-99.99,,,0.00,Acu-Link.com,2013-06-01 09:01:00,
2013-06-01 03:16:00,51.6,24.2,30.08,SSE,157,0.0,-999.0,34,-99.99,,,0.00,Acu-Link.com,2013-06-01 09:16:00,
2013-06-01 03:31:00,51.1,24.4,30.09,SSE,157,0.0,-999.0,35,-99.99,,,0.00,Acu-Link.com,2013-06-01 09:31:00,
2013-06-01 03:46:00,49.8,25.2,30.09,ENE,67,0.0,-999.0,38,-99.99,,,0.00,Acu-Link.com,2013-06-01 09:46:00,
2013-06-01 04:02:00,49.1,25.8,30.09,NNE,22,0.0,-999.0,40,-99.99,,,0.00,Acu-Link.com,2013-06-01 10:02:00,
2013-06-01 04:17:00,48.2,26.8,30.09,NE,45,0.0,-999.0,43,-99.99,,,0.00,Acu-Link.com,2013-06-01 10:17:00,
2013-06-01 04:32:00,47.5,26.7,30.09,SW,225,1.6,-999.0,44,-99.99,,,0.00,Acu-Link.com,2013-06-01 10:32:00,
2013-06-01 04:48:00,47.1,26.9,30.09,North,0,0.0,-999.0,45,-99.99,,,0.00,Acu-Link.com,2013-06-01 10:48:00,
2013-06-01 05:03:00,46.9,27.3,30.10,WNW,292,0.0,-999.0,46,-99.99,,,0.00,Acu-Link.com,2013-06-01 11:03:00,
2013-06-01 05:18:00,46.2,27.6,30.10,WNW,292,0.0,-999.0,48,-99.99,,,0.00,Acu-Link.com,2013-06-01 11:18:00,
2013-06-01 05:33:00,46.0,28.0,30.11,WNW,292,0.0,-999.0,49,-99.99,,,0.00,Acu-Link.com,2013-06-01 11:33:00,
2013-06-01 05:49:00,45.7,28.1,30.11,ENE,67,0.0,-999.0,50,-99.99,,,0.00,Acu-Link.com,2013-06-01 11:49:00,
2013-06-01 06:04:00,45.3,28.3,30.11,NE,45,0.0,-999.0,51,-99.99,,,0.00,Acu-Link.com,2013-06-01 12:04:00,
2013-06-01 06:19:00,45.3,29.2,30.12,ENE,67,0.0,-999.0,53,-99.99,,,0.00,Acu-Link.com,2013-06-01 12:19:00,
2013-06-01 06:34:00,45.0,30.7,30.12,NE,45,0.0,-999.0,57,-99.99,,,0.00,Acu-Link.com,2013-06-01 12:34:00,
2013-06-01 06:50:00,45.5,30.7,30.12,ESE,112,0.0,-999.0,56,-99.99,,,0.00,Acu-Link.com,2013-06-01 12:50:00,
2013-06-01 07:05:00,46.6,30.4,30.12,SW,225,0.0,-999.0,53,-99.99,,,0.00,Acu-Link.com,2013-06-01 13:05:00,
2013-06-01 07:20:00,48.2,30.9,30.13,West,270,1.1,-999.0,51,-99.99,,,0.00,Acu-Link.com,2013-06-01 13:20:00,
2013-06-01 07:36:00,51.1,29.9,30.13,West,270,1.1,-999.0,44,-99.99,,,0.00,Acu-Link.com,2013-06-01 13:36:00,
2013-06-01 07:51:00,53.2,31.3,30.13,South,180,0.0,-999.0,43,-99.99,,,0.00,Acu-Link.com,2013-06-01 13:51:00,
2013-06-01 08:06:00,56.8,30.2,30.13,SW,225,2.7,-999.0,36,-99.99,,,0.00,Acu-Link.com,2013-06-01 14:06:00,
2013-06-01 08:21:00,57.4,30.7,30.13,SW,225,1.6,-999.0,36,-99.99,,,0.00,Acu-Link.com,2013-06-01 14:21:00,
2013-06-01 08:36:00,59.0,28.4,30.13,SSE,157,1.6,-999.0,31,-99.99,,,0.00,Acu-Link.com,2013-06-01 14:36:00,
2013-06-01 08:51:00,59.9,27.6,30.13,ESE,112,2.2,-999.0,29,-99.99,,,0.00,Acu-Link.com,2013-06-01 14:51:00,
2013-06-01 09:07:00,64.0,28.5,30.13,West,270,1.6,-999.0,26,-99.99,,,0.00,Acu-Link.com,2013-06-01 15:07:00,
2013-06-01 09:22:00,65.5,28.7,30.14,East,90,2.2,-999.0,25,-99.99,,,0.00,Acu-Link.com,2013-06-01 15:22:00,
2013-06-01 09:37:00,66.9,29.0,30.13,ESE,112,1.1,-999.0,24,-99.99,,,0.00,Acu-Link.com,2013-06-01 15:37:00,
2013-06-01 09:53:00,66.9,27.9,30.13,West,270,3.1,-999.0,23,-99.99,,,0.00,Acu-Link.com,2013-06-01 15:53:00,
2013-06-01 10:08:00,69.3,28.8,30.13,WNW,292,1.6,-999.0,22,-99.99,,,0.00,Acu-Link.com,2013-06-01 16:08:00,
2013-06-01 10:23:00,69.1,28.6,30.13,ESE,112,2.7,-999.0,22,-99.99,,,0.00,Acu-Link.com,2013-06-01 16:23:00,
2013-06-01 10:39:00,70.0,28.3,30.12,East,90,2.2,-999.0,21,-99.99,,,0.00,Acu-Link.com,2013-06-01 16:39:00,
2013-06-01 10:54:00,70.3,26.1,30.11,ENE,67,2.2,-999.0,19,-99.99,,,0.00,Acu-Link.com,2013-06-01 16:54:00,
2013-06-01 11:09:00,71.2,26.9,30.11,NNE,22,4.7,-999.0,19,-99.99,,,0.00,Acu-Link.com,2013-06-01 17:09:00,
2013-06-01 11:24:00,74.5,25.3,30.12,East,90,3.1,-999.0,16,-99.99,,,0.00,Acu-Link.com,2013-06-01 17:24:00,
2013-06-01 11:40:00,75.0,27.2,30.11,SSE,157,3.1,-999.0,17,-99.99,,,0.00,Acu-Link.com,2013-06-01 17:40:00,
2013-06-01 11:55:00,74.1,26.5,30.11,WSW,247,2.7,-999.0,17,-99.99,,,0.00,Acu-Link.com,2013-06-01 17:55:00,
2013-06-01 12:10:00,73.9,27.8,30.10,North,0,2.7,-999.0,18,-99.99,,,0.00,Acu-Link.com,2013-06-01 18:10:00,
2013-06-01 12:25:00,75.6,26.2,30.10,East,90,1.6,-999.0,16,-99.99,,,0.00,Acu-Link.com,2013-06-01 18:25:00,
2013-06-01 12:41:00,76.1,26.6,30.08,ESE,112,5.1,-999.0,16,-99.99,,,0.00,Acu-Link.com,2013-06-01 18:41:00,
2013-06-01 12:56:00,77.0,25.8,30.08,SSW,202,2.7,-999.0,15,-99.99,,,0.00,Acu-Link.com,2013-06-01 18:56:00,
2013-06-01 13:11:00,76.1,26.6,30.07,West,270,2.7,-999.0,16,-99.99,,,0.00,Acu-Link.com,2013-06-01 19:11:00,
2013-06-01 13:26:00,76.6,27.1,30.06,West,270,1.6,-999.0,16,-99.99,,,0.00,Acu-Link.com,2013-06-01 19:26:00,
2013-06-01 13:42:00,77.0,27.4,30.06,West,270,3.1,-999.0,16,-99.99,,,0.00,Acu-Link.com,2013-06-01 19:42:00,
2013-06-01 13:57:00,76.6,27.1,30.05,West,270,3.8,-999.0,16,-99.99,,,0.00,Acu-Link.com,2013-06-01 19:57:00,
2013-06-01 14:12:00,79.5,29.4,30.04,SSE,157,1.1,-999.0,16,-99.99,,,0.00,Acu-Link.com,2013-06-01 20:12:00,
2013-06-01 14:27:00,78.6,27.1,30.04,West,270,3.1,-999.0,15,-99.99,,,0.00,Acu-Link.com,2013-06-01 20:27:00,
2013-06-01 14:42:00,79.2,27.5,30.03,ENE,67,1.6,-999.0,15,-99.99,,,0.00,Acu-Link.com,2013-06-01 20:42:00,
2013-06-01 14:58:00,79.7,26.3,30.02,SSE,157,2.7,-999.0,14,-99.99,,,0.00,Acu-Link.com,2013-06-01 20:58:00,
2013-06-01 15:13:00,80.6,27.0,30.02,ESE,112,2.2,-999.0,14,-99.99,,,0.00,Acu-Link.com,2013-06-01 21:13:00,
2013-06-01 15:28:00,80.2,26.7,30.01,West,270,2.7,-999.0,14,-99.99,,,0.00,Acu-Link.com,2013-06-01 21:28:00,
2013-06-01 15:43:00,82.2,28.3,30.01,ESE,112,2.2,-999.0,14,-99.99,,,0.00,Acu-Link.com,2013-06-01 21:43:00,
2013-06-01 15:59:00,81.3,29.2,30.00,East,90,2.2,-999.0,15,-99.99,,,0.00,Acu-Link.com,2013-06-01 21:59:00,
2013-06-01 16:14:00,81.1,29.1,30.00,WNW,292,2.2,-999.0,15,-99.99,,,0.00,Acu-Link.com,2013-06-01 22:14:00,
2013-06-01 16:29:00,81.3,29.2,29.99,NW,315,2.7,-999.0,15,-99.99,,,0.00,Acu-Link.com,2013-06-01 22:29:00,
2013-06-01 16:44:00,79.9,28.1,29.99,East,90,1.6,-999.0,15,-99.99,,,0.00,Acu-Link.com,2013-06-01 22:44:00,
2013-06-01 17:00:00,81.0,27.3,29.98,SSE,157,0.0,-999.0,14,-99.99,,,0.00,Acu-Link.com,2013-06-01 23:00:00,
2013-06-01 17:15:00,81.1,27.4,29.97,West,270,4.3,-999.0,14,-99.99,,,0.00,Acu-Link.com,2013-06-01 23:15:00,
2013-06-01 17:30:00,81.5,27.7,29.96,NNW,337,1.6,-999.0,14,-99.99,,,0.00,Acu-Link.com,2013-06-01 23:30:00,
2013-06-01 17:45:00,84.9,26.6,29.95,SW,225,2.2,-999.0,12,-99.99,,,0.00,Acu-Link.com,2013-06-01 23:45:00,
2013-06-01 18:00:00,90.5,28.8,29.95,SW,225,2.7,-999.0,11,-99.99,,,0.00,Acu-Link.com,2013-06-02 00:00:00,
2013-06-01 18:16:00,90.0,28.4,29.95,NE,45,3.1,-999.0,11,-99.99,,,0.00,Acu-Link.com,2013-06-02 00:16:00,
2013-06-01 18:31:00,88.0,29.0,29.94,ESE,112,1.6,-999.0,12,-99.99,,,0.00,Acu-Link.com,2013-06-02 00:31:00,
2013-06-01 18:46:00,86.5,27.9,29.94,North,0,1.6,-999.0,12,-99.99,,,0.00,Acu-Link.com,2013-06-02 00:46:00,
2013-06-01 19:01:00,88.7,29.6,29.94,ESE,112,0.0,-999.0,12,-99.99,,,0.00,Acu-Link.com,2013-06-02 01:01:00,
2013-06-01 19:16:00,86.9,26.1,29.94,ESE,112,0.0,-999.0,11,-99.99,,,0.00,Acu-Link.com,2013-06-02 01:16:00,
2013-06-01 19:31:00,83.5,29.3,29.94,North,0,0.0,-999.0,14,-99.99,,,0.00,Acu-Link.com,2013-06-02 01:31:00,
2013-06-01 19:47:00,81.3,29.2,29.93,ENE,67,0.0,-999.0,15,-99.99,,,0.00,Acu-Link.com,2013-06-02 01:47:00,
2013-06-01 20:02:00,80.1,34.1,29.94,NNW,337,0.0,-999.0,19,-99.99,,,0.00,Acu-Link.com,2013-06-02 02:02:00,
2013-06-01 20:17:00,77.5,33.3,29.94,WNW,292,0.0,-999.0,20,-99.99,,,0.00,Acu-Link.com,2013-06-02 02:17:00,
2013-06-01 20:32:00,74.1,31.7,29.94,ENE,67,0.0,-999.0,21,-99.99,,,0.00,Acu-Link.com,2013-06-02 02:32:00,
2013-06-01 20:48:00,71.2,31.5,29.93,NNE,22,0.0,-999.0,23,-99.99,,,0.00,Acu-Link.com,2013-06-02 02:48:00,
2013-06-01 21:03:00,69.1,30.8,29.94,North,0,0.0,-999.0,24,-99.99,,,0.00,Acu-Link.com,2013-06-02 03:03:00,
2013-06-01 21:18:00,67.1,32.9,29.94,ENE,67,0.0,-999.0,28,-99.99,,,0.00,Acu-Link.com,2013-06-02 03:18:00,
2013-06-01 21:33:00,65.7,32.5,29.95,ESE,112,0.0,-999.0,29,-99.99,,,0.00,Acu-Link.com,2013-06-02 03:33:00,
2013-06-01 21:48:00,64.9,31.9,29.95,East,90,0.0,-999.0,29,-99.99,,,0.00,Acu-Link.com,2013-06-02 03:48:00,
2013-06-01 22:03:00,63.9,31.8,29.95,ENE,67,0.0,-999.0,30,-99.99,,,0.00,Acu-Link.com,2013-06-02 04:03:00,
2013-06-01 22:19:00,62.8,32.5,29.96,SE,135,0.0,-999.0,32,-99.99,,,0.00,Acu-Link.com,2013-06-02 04:19:00,
2013-06-01 22:34:00,63.1,32.0,29.96,ENE,67,0.0,-999.0,31,-99.99,,,0.00,Acu-Link.com,2013-06-02 04:34:00,
2013-06-01 22:49:00,62.6,34.6,29.96,ENE,67,0.0,-999.0,35,-99.99,,,0.00,Acu-Link.com,2013-06-02 04:49:00,
2013-06-01 23:04:00,61.3,36.2,29.96,East,90,0.0,-999.0,39,-99.99,,,0.00,Acu-Link.com,2013-06-02 05:04:00,
2013-06-01 23:19:00,60.4,35.4,29.96,NNE,22,0.0,-999.0,39,-99.99,,,0.00,Acu-Link.com,2013-06-02 05:19:00,
2013-06-01 23:34:00,59.5,33.9,29.96,ESE,112,0.0,-999.0,38,-99.99,,,0.00,Acu-Link.com,2013-06-02 05:34:00,
2013-06-01 23:50:00,59.0,32.8,29.96,WNW,292,0.0,-999.0,37,-99.99,,,0.00,Acu-Link.com,2013-06-02 05:50:00,